Weather History for Chipley, FL

Change the Weather History Date:

Friday, July 12, 2013

  Actual Average (KMAI) Record (KMAI)
Temperature  
Mean Temperature 84 °F 82 °F  
Max Temperature 93 °F 92 °F 100 °F (2000)
Min Temperature 75 °F 72 °F 71 °F (2003)
Degree Days  
Heating Degree Days 0    
Month to date heating degree days  
Since 1 June heating degree days  
Since 1 July heating degree days  
Cooling Degree Days 19    
Month to date cooling degree days  
Year to date cooling degree days  
Since 1 June cooling degree days  
Growing Degree Days 34 (Base 50)    
Moisture  
Dew Point 70 °F    
Average Humidity 66    
Maximum Humidity 89    
Minimum Humidity 41    
Precipitation  
Precipitation 0.00 in 0.18 in 0.96 in (2014)
Month to date precipitation 2.17  
Year to date precipitation 29.96  
Sea Level Pressure  
Sea Level Pressure 29.92 in    
Wind  
Wind Speed 3 mph (NNW)    
Max Wind Speed 8 mph    
Max Gust Speed -    
Visibility 10 miles    
Events      
T = Trace of Precipitation, MM = Missing Value Source: NWS Daily Summary

Daily Weather History Graph

Daily Weather History Graph

Search for Another Location

Airport:

Trip Planner

Search our weather history database for the weather conditions in past years. The results will help you decide how hot, cold, wet, or windy it might be!

Date:

Astronomy

Jul. 12, 2013 Rise Set
Actual Time 5:48 AM CDT 7:47 PM CDT
Civil Twilight 5:21 AM CDT 8:14 PM CDT
Nautical Twilight 4:47 AM CDT 8:47 PM CDT
Astronomical Twilight 4:12 AM CDT 9:23 PM CDT
Moon 9:44 AM CDT (7/12) 10:20 PM CDT (7/12)
Length of Visible Light 14h 53m
Length of Day
13h 59m
Waxing Crescent, 17% of the Moon is Illuminated
Jul 12
Waxing Crescent
Jul 15
First Quarter
Jul 22
Full
Jul 29
Last Quarter
Aug 6
New

Hourly Weather History & Observations

Time (CDT) Temp. Heat Index Dew Point Humidity Pressure Visibility Wind Dir Wind Speed Gust Speed Precip Events Conditions
12:15 AM 75.2 °F - 71.6 °F 89% 29.96 in 10.0 mi Calm Calm - N/A   Mostly Cloudy
12:35 AM 75.2 °F - 71.6 °F 89% 29.95 in 10.0 mi NNE 4.6 mph - N/A   Overcast
12:55 AM 75.2 °F - 71.6 °F 89% 29.94 in 10.0 mi NNE 4.6 mph - N/A   Overcast
1:15 AM 75.2 °F - 71.6 °F 89% 29.94 in 10.0 mi Calm Calm - N/A   Scattered Clouds
1:35 AM 75.2 °F - 71.6 °F 89% 29.93 in 10.0 mi NNE 3.5 mph - N/A   Clear
1:55 AM 75.2 °F - 71.6 °F 89% 29.93 in 10.0 mi Calm Calm - N/A   Clear
2:15 AM 75.2 °F - 71.6 °F 89% 29.93 in 10.0 mi NNW 3.5 mph - N/A   Clear
2:35 AM 75.2 °F - 69.8 °F 83% 29.92 in 10.0 mi North 3.5 mph - N/A   Clear
2:55 AM 75.2 °F - 69.8 °F 83% 29.92 in 10.0 mi NNE 3.5 mph - N/A   Clear
3:15 AM 75.2 °F - 69.8 °F 83% 29.92 in 10.0 mi Calm Calm - N/A   Clear
3:35 AM 75.2 °F - 69.8 °F 83% 29.92 in 10.0 mi North 3.5 mph - N/A   Clear
3:55 AM 75.2 °F - 71.6 °F 89% 29.92 in 10.0 mi Calm Calm - N/A   Clear
4:15 AM 75.2 °F - 69.8 °F 83% 29.92 in 10.0 mi Calm Calm - N/A   Clear
4:35 AM 75.2 °F - 69.8 °F 83% 29.93 in 10.0 mi NNE 3.5 mph - N/A   Scattered Clouds
4:55 AM 75.2 °F - 69.8 °F 83% 29.93 in 10.0 mi Calm Calm - N/A   Scattered Clouds
5:15 AM 75.2 °F - 69.8 °F 83% 29.92 in 10.0 mi NNE 4.6 mph - N/A   Scattered Clouds
5:35 AM 75.2 °F - 71.6 °F 89% 29.93 in 10.0 mi NNE 3.5 mph - N/A   Partly Cloudy
5:55 AM 75.2 °F - 71.6 °F 89% 29.93 in 10.0 mi North 4.6 mph - N/A   Partly Cloudy
6:15 AM 75.2 °F - 71.6 °F 89% 29.94 in 10.0 mi North 6.9 mph - N/A   Mostly Cloudy
6:35 AM 75.2 °F - 71.6 °F 89% 29.94 in 10.0 mi North 3.5 mph - N/A   Scattered Clouds
6:55 AM 75.2 °F - 71.6 °F 89% 29.94 in 10.0 mi North 4.6 mph - N/A   Clear
7:15 AM 75.2 °F - 71.6 °F 89% 29.95 in 10.0 mi North 3.5 mph - N/A   Clear
7:35 AM 77.0 °F - 71.6 °F 83% 29.95 in 10.0 mi North 3.5 mph - N/A   Clear
7:55 AM 78.8 °F - 71.6 °F 78% 29.96 in 10.0 mi NNW 4.6 mph - N/A   Mostly Cloudy
8:15 AM 78.8 °F - 71.6 °F 78% 29.96 in 10.0 mi North 4.6 mph - N/A   Overcast
8:35 AM 78.8 °F - 71.6 °F 78% 29.97 in 10.0 mi NW 3.5 mph - N/A   Scattered Clouds
8:55 AM 78.8 °F - 71.6 °F 78% 29.96 in 10.0 mi NW 3.5 mph - N/A   Clear
9:15 AM 80.6 °F 84.6 °F 71.6 °F 74% 29.96 in 10.0 mi NNW 3.5 mph - N/A   Scattered Clouds
9:35 AM 80.6 °F 84.6 °F 71.6 °F 74% 29.96 in 10.0 mi NW 5.8 mph - N/A   Scattered Clouds
9:55 AM 82.4 °F 87.2 °F 71.6 °F 70% 29.96 in 10.0 mi WNW 5.8 mph - N/A   Mostly Cloudy
10:15 AM 82.4 °F 87.2 °F 71.6 °F 70% 29.95 in 10.0 mi NW 8.1 mph - N/A   Partly Cloudy
10:35 AM 82.4 °F 86.3 °F 69.8 °F 66% 29.95 in 10.0 mi North 4.6 mph - N/A   Clear
10:55 AM 84.2 °F 89.6 °F 71.6 °F 66% 29.95 in 10.0 mi North 4.6 mph - N/A   Clear
11:15 AM 84.2 °F 89.6 °F 71.6 °F 66% 29.95 in 10.0 mi NW 3.5 mph - N/A   Clear
11:35 AM 84.2 °F 89.6 °F 71.6 °F 66% 29.94 in 10.0 mi NNE 5.8 mph - N/A   Clear
11:55 AM 84.2 °F 89.6 °F 71.6 °F 66% 29.94 in 10.0 mi NW 3.5 mph - N/A   Clear
12:15 PM 86.0 °F 91.8 °F 71.6 °F 62% 29.93 in 10.0 mi NW 3.5 mph - N/A   Clear
12:35 PM 87.8 °F 92.6 °F 69.8 °F 55% 29.93 in 10.0 mi Calm Calm - N/A   Clear
12:55 PM 87.8 °F 93.8 °F 71.6 °F 58% 29.93 in 10.0 mi Calm Calm - N/A   Clear
1:15 PM 89.6 °F 94.7 °F 69.8 °F 52% 29.92 in 10.0 mi West 4.6 mph - N/A   Clear
1:35 PM 89.6 °F 94.7 °F 69.8 °F 52% 29.92 in 10.0 mi WNW 3.5 mph - N/A   Clear
1:55 PM 91.4 °F 96.8 °F 69.8 °F 49% 29.92 in 10.0 mi WNW 5.8 mph - N/A   Clear
2:15 PM 91.4 °F 96.8 °F 69.8 °F 49% 29.91 in 10.0 mi North 3.5 mph - N/A   Clear
2:35 PM 91.4 °F 96.8 °F 69.8 °F 49% 29.91 in 10.0 mi NW 4.6 mph - N/A   Clear
2:55 PM 91.4 °F 95.4 °F 68.0 °F 46% 29.90 in 10.0 mi WNW 4.6 mph - N/A   Clear
3:15 PM 91.4 °F 95.4 °F 68.0 °F 46% 29.90 in 10.0 mi NW 5.8 mph - N/A   Clear
3:35 PM 93.2 °F 98.8 °F 69.8 °F 46% 29.89 in 10.0 mi NW 6.9 mph - N/A   Clear
3:55 PM 93.2 °F 98.8 °F 69.8 °F 46% 29.88 in 10.0 mi NW 6.9 mph - N/A   Clear
4:15 PM 93.2 °F 98.8 °F 69.8 °F 46% 29.88 in 10.0 mi Calm Calm - N/A   Clear
4:35 PM 93.2 °F 98.8 °F 69.8 °F 46% 29.87 in 10.0 mi WNW 3.5 mph - N/A   Clear
4:55 PM 93.2 °F 97.7 °F 68.0 °F 44% 29.87 in 10.0 mi NNE 5.8 mph - N/A   Clear
5:15 PM 93.2 °F 98.8 °F 69.8 °F 46% 29.86 in 10.0 mi NNE 5.8 mph - N/A   Clear
5:35 PM 91.4 °F 95.4 °F 68.0 °F 46% 29.86 in 10.0 mi North 4.6 mph - N/A   Clear
5:55 PM 91.4 °F 96.8 °F 69.8 °F 49% 29.87 in 10.0 mi North 6.9 mph - N/A   Clear
6:15 PM 91.4 °F 94.0 °F 66.2 °F 43% 29.87 in 10.0 mi North 4.6 mph - N/A   Clear
6:35 PM 93.2 °F 96.2 °F 66.2 °F 41% 29.87 in 10.0 mi NNW 4.6 mph - N/A   Clear
6:55 PM 91.4 °F 95.4 °F 68.0 °F 46% 29.87 in 10.0 mi NNE 5.8 mph - N/A   Clear
7:15 PM 91.4 °F 96.8 °F 69.8 °F 49% 29.89 in 10.0 mi North 3.5 mph - N/A   Scattered Clouds
7:35 PM 89.6 °F 96.2 °F 71.6 °F 55% 29.89 in 10.0 mi South 4.6 mph - N/A   Partly Cloudy
7:55 PM 87.8 °F 93.8 °F 71.6 °F 58% 29.88 in 10.0 mi South 5.8 mph - N/A   Mostly Cloudy
8:15 PM 87.8 °F 90.4 °F 66.2 °F 49% 29.88 in 10.0 mi SSW 5.8 mph - N/A   Overcast
8:35 PM 86.0 °F 89.4 °F 68.0 °F 55% 29.89 in 10.0 mi Calm Calm - N/A   Scattered Clouds
8:55 PM 84.2 °F 87.3 °F 68.0 °F 58% 29.88 in 10.0 mi WNW 3.5 mph - N/A   Clear
9:15 PM 84.2 °F 87.3 °F 68.0 °F 58% 29.88 in 10.0 mi SW 3.5 mph - N/A   Clear
9:35 PM 84.2 °F 86.6 °F 66.2 °F 55% 29.89 in 10.0 mi WSW 5.8 mph - N/A   Clear
9:55 PM 82.4 °F 84.6 °F 66.2 °F 58% 29.90 in 10.0 mi Calm Calm - N/A   Clear
10:15 PM 82.4 °F 84.6 °F 66.2 °F 58% 29.90 in 10.0 mi Calm Calm - N/A   Clear
10:35 PM 82.4 °F 84.6 °F 66.2 °F 58% 29.90 in 10.0 mi Calm Calm - N/A   Clear
10:55 PM 82.4 °F 84.6 °F 66.2 °F 58% 29.91 in 10.0 mi Calm Calm - N/A   Scattered Clouds
11:15 PM 84.2 °F 86.6 °F 66.2 °F 55% 29.91 in 10.0 mi NE 3.5 mph - N/A   Scattered Clouds
11:35 PM 84.2 °F 87.3 °F 68.0 °F 58% 29.90 in 10.0 mi North 3.5 mph - N/A   Clear
11:55 PM 84.2 °F 88.4 °F 69.8 °F 62% 29.90 in 10.0 mi North 3.5 mph - N/A   Clear